TimeCDT,TemperatureF,Dew PointF,Humidity,Sea Level PressureIn,VisibilityMPH,Wind Direction,Wind SpeedMPH,Gust SpeedMPH,PrecipitationIn,Events,Conditions,WindDirDegrees,DateUTC
12:15 AM,69.8,55.4,60,29.87,10.0,SSW,5.8,-,N/A,,Partly Cloudy,200,2013-09-15 05:15:00
12:35 AM,69.8,55.4,60,29.87,10.0,SSW,5.8,-,N/A,,Mostly Cloudy,200,2013-09-15 05:35:00
12:55 AM,69.8,57.2,64,29.87,10.0,SSW,4.6,-,N/A,,Overcast,210,2013-09-15 05:55:00
1:15 AM,68.0,57.2,68,29.87,10.0,SSW,5.8,-,N/A,,Scattered Clouds,200,2013-09-15 06:15:00
1:35 AM,68.0,57.2,68,29.87,10.0,SSW,5.8,-,N/A,,Partly Cloudy,200,2013-09-15 06:35:00
1:55 AM,68.0,57.2,68,29.87,10.0,SSW,4.6,-,N/A,,Scattered Clouds,210,2013-09-15 06:55:00
2:15 AM,68.0,57.2,68,29.87,10.0,SSW,4.6,-,N/A,,Overcast,200,2013-09-15 07:15:00
2:35 AM,68.0,57.2,68,29.88,10.0,SW,3.5,-,N/A,,Mostly Cloudy,220,2013-09-15 07:35:00
2:55 AM,66.2,57.2,73,29.87,10.0,SSW,3.5,-,N/A,,Partly Cloudy,210,2013-09-15 07:55:00
3:15 AM,66.2,57.2,73,29.87,10.0,SW,3.5,-,N/A,,Partly Cloudy,230,2013-09-15 08:15:00
3:35 AM,66.2,59.0,78,29.87,10.0,SW,3.5,-,N/A,,Clear,230,2013-09-15 08:35:00
3:55 AM,66.2,57.2,73,29.88,10.0,West,4.6,-,N/A,,Clear,260,2013-09-15 08:55:00
4:15 AM,66.2,59.0,78,29.89,10.0,West,4.6,-,N/A,,Mostly Cloudy,280,2013-09-15 09:15:00
4:35 AM,64.4,57.2,77,29.88,10.0,NW,5.8,-,N/A,,Mostly Cloudy,310,2013-09-15 09:35:00
4:55 AM,64.4,57.2,77,29.89,10.0,WSW,4.6,-,N/A,,Mostly Cloudy,250,2013-09-15 09:55:00
5:15 AM,66.2,59.0,78,29.91,10.0,WNW,6.9,-,N/A,,Overcast,290,2013-09-15 10:15:00
5:35 AM,66.2,57.2,73,29.93,10.0,NW,9.2,-,N/A,,Mostly Cloudy,310,2013-09-15 10:35:00
5:55 AM,66.2,57.2,73,29.98,10.0,West,5.8,-,N/A,,Overcast,280,2013-09-15 10:55:00
6:15 AM,64.4,57.2,77,29.99,10.0,NW,5.8,-,N/A,,Overcast,310,2013-09-15 11:15:00
6:35 AM,64.4,55.4,73,29.98,10.0,NNW,10.4,-,N/A,,Overcast,330,2013-09-15 11:35:00
6:55 AM,64.4,55.4,73,29.97,10.0,NNW,13.8,19.6,N/A,,Overcast,330,2013-09-15 11:55:00
7:15 AM,62.6,55.4,77,29.93,10.0,North,12.7,24.2,N/A,,Overcast,350,2013-09-15 12:15:00
7:35 AM,62.6,55.4,77,29.95,10.0,NNW,16.1,23.0,0.01,,Mostly Cloudy,340,2013-09-15 12:35:00
7:55 AM,60.8,55.4,82,29.97,10.0,NNW,12.7,21.9,0.02,,Mostly Cloudy,330,2013-09-15 12:55:00
8:15 AM,62.6,55.4,77,29.99,10.0,NNW,9.2,-,N/A,,Overcast,330,2013-09-15 13:15:00
8:35 AM,62.6,55.4,77,30.00,10.0,NW,11.5,-,N/A,,Overcast,320,2013-09-15 13:35:00
8:55 AM,62.6,55.4,77,30.01,10.0,North,12.7,16.1,N/A,,Overcast,350,2013-09-15 13:55:00
9:15 AM,62.6,55.4,77,30.02,10.0,North,13.8,20.7,N/A,,Overcast,350,2013-09-15 14:15:00
9:35 AM,62.6,55.4,77,30.03,10.0,North,12.7,20.7,N/A,,Overcast,360,2013-09-15 14:35:00
9:55 AM,62.6,55.4,77,30.03,10.0,North,11.5,21.9,N/A,,Overcast,10,2013-09-15 14:55:00
10:15 AM,62.6,55.4,77,30.06,10.0,North,15.0,19.6,N/A,,Overcast,10,2013-09-15 15:15:00
10:35 AM,62.6,55.4,77,30.07,10.0,NNE,9.2,-,N/A,,Overcast,20,2013-09-15 15:35:00
10:55 AM,62.6,53.6,72,30.08,10.0,NNE,9.2,18.4,N/A,,Overcast,20,2013-09-15 15:55:00
11:15 AM,62.6,53.6,72,30.09,10.0,NNE,13.8,18.4,N/A,,Overcast,20,2013-09-15 16:15:00
11:35 AM,64.4,53.6,68,30.09,10.0,North,10.4,17.3,N/A,,Overcast,10,2013-09-15 16:35:00
11:55 AM,64.4,53.6,68,30.09,10.0,NNE,12.7,16.1,N/A,,Overcast,20,2013-09-15 16:55:00
12:15 PM,68.0,55.4,64,30.09,10.0,North,13.8,19.6,N/A,,Overcast,10,2013-09-15 17:15:00
12:35 PM,69.8,55.4,60,30.10,10.0,NNE,15.0,24.2,N/A,,Overcast,30,2013-09-15 17:35:00
12:55 PM,68.0,53.6,60,30.11,10.0,NNE,18.4,23.0,N/A,,Mostly Cloudy,30,2013-09-15 17:55:00
1:15 PM,71.6,53.6,53,30.12,10.0,NE,16.1,21.9,N/A,,Scattered Clouds,40,2013-09-15 18:15:00
1:35 PM,71.6,53.6,53,30.12,10.0,NE,16.1,24.2,N/A,,Scattered Clouds,50,2013-09-15 18:35:00
1:55 PM,69.8,53.6,56,30.13,10.0,NNE,15.0,23.0,N/A,,Scattered Clouds,30,2013-09-15 18:55:00
2:15 PM,69.8,53.6,56,30.13,10.0,NE,12.7,20.7,N/A,,Mostly Cloudy,40,2013-09-15 19:15:00
2:35 PM,69.8,53.6,56,30.14,10.0,NE,13.8,21.9,N/A,,Mostly Cloudy,40,2013-09-15 19:35:00
2:55 PM,69.8,51.8,53,30.14,10.0,NNE,12.7,19.6,N/A,,Overcast,30,2013-09-15 19:55:00
3:15 PM,69.8,51.8,53,30.14,10.0,NNE,10.4,19.6,N/A,,Mostly Cloudy,20,2013-09-15 20:15:00
3:35 PM,69.8,51.8,53,30.14,10.0,NE,16.1,20.7,N/A,,Mostly Cloudy,40,2013-09-15 20:35:00
3:55 PM,69.8,51.8,53,30.14,10.0,NNE,13.8,19.6,N/A,,Scattered Clouds,30,2013-09-15 20:55:00
4:15 PM,71.6,53.6,53,30.14,10.0,NNE,12.7,23.0,N/A,,Mostly Cloudy,20,2013-09-15 21:15:00
4:35 PM,71.6,51.8,50,30.14,10.0,NNE,16.1,21.9,N/A,,Scattered Clouds,30,2013-09-15 21:35:00
4:55 PM,71.6,53.6,53,30.15,10.0,NNE,13.8,20.7,N/A,,Partly Cloudy,20,2013-09-15 21:55:00
5:15 PM,69.8,51.8,53,30.15,10.0,NNE,13.8,21.9,N/A,,Scattered Clouds,20,2013-09-15 22:15:00
5:35 PM,69.8,51.8,53,30.16,10.0,NE,11.5,-,N/A,,Partly Cloudy,40,2013-09-15 22:35:00
5:55 PM,68.0,51.8,56,30.16,10.0,NE,12.7,20.7,N/A,,Mostly Cloudy,40,2013-09-15 22:55:00
6:15 PM,66.2,51.8,60,30.17,10.0,NE,13.8,18.4,N/A,,Scattered Clouds,40,2013-09-15 23:15:00
6:35 PM,66.2,51.8,60,30.18,10.0,NE,9.2,-,N/A,,Mostly Cloudy,50,2013-09-15 23:35:00
6:55 PM,64.4,50.0,59,30.19,10.0,NNE,12.7,18.4,N/A,,Scattered Clouds,30,2013-09-15 23:55:00
7:15 PM,64.4,50.0,59,30.20,10.0,ENE,8.1,-,N/A,,Clear,60,2013-09-16 00:15:00
7:35 PM,62.6,50.0,63,30.20,10.0,ENE,4.6,-,N/A,,Clear,70,2013-09-16 00:35:00
7:55 PM,60.8,48.2,63,30.21,10.0,Calm,Calm,-,N/A,,Clear,0,2013-09-16 00:55:00
8:15 PM,60.8,50.0,68,30.22,10.0,ENE,3.5,-,N/A,,Mostly Cloudy,70,2013-09-16 01:15:00
8:35 PM,59.0,50.0,72,30.23,10.0,Calm,Calm,-,N/A,,Overcast,0,2013-09-16 01:35:00
8:55 PM,59.0,50.0,72,30.23,10.0,ENE,3.5,-,N/A,,Overcast,60,2013-09-16 01:55:00
9:15 PM,60.8,51.8,72,30.24,10.0,NE,3.5,-,N/A,,Overcast,50,2013-09-16 02:15:00
9:35 PM,60.8,51.8,72,30.25,10.0,Calm,Calm,-,N/A,,Overcast,0,2013-09-16 02:35:00
9:55 PM,59.0,51.8,77,30.25,10.0,North,3.5,-,N/A,,Overcast,10,2013-09-16 02:55:00
10:15 PM,60.8,51.8,72,30.25,10.0,NNE,4.6,-,N/A,,Overcast,30,2013-09-16 03:15:00
10:35 PM,60.8,51.8,72,30.26,10.0,NNE,5.8,-,N/A,,Overcast,20,2013-09-16 03:35:00
10:55 PM,60.8,51.8,72,30.26,10.0,NNE,5.8,-,N/A,,Overcast,30,2013-09-16 03:55:00
11:15 PM,60.8,51.8,72,30.26,10.0,NE,6.9,-,N/A,,Overcast,40,2013-09-16 04:15:00
11:35 PM,60.8,51.8,72,30.27,10.0,NNE,5.8,-,N/A,,Overcast,30,2013-09-16 04:35:00
11:55 PM,60.8,51.8,72,30.27,10.0,NE,6.9,-,N/A,,Overcast,40,2013-09-16 04:55:00